Time,TemperatureF,DewpointF,PressureIn,WindDirection,WindDirectionDegrees,WindSpeedMPH,WindSpeedGustMPH,Humidity,HourlyPrecipIn,Conditions,Clouds,dailyrainin,SoftwareType,DateUTC
2014-09-30 00:01:00,59.0,51.1,29.86,NW,308,0.0,0.0,75,0.00,,,0.00,WeatherCatV1.23B16,2014-09-30 04:01:00,
2014-09-30 00:06:00,58.9,51.0,29.86,NW,308,0.0,0.0,75,0.00,,,0.00,WeatherCatV1.23B16,2014-09-30 04:06:00,
2014-09-30 00:08:00,58.7,50.8,29.86,NW,308,0.0,0.0,75,0.00,,,0.00,WeatherCatV1.23B16,2014-09-30 04:08:00,
2014-09-30 00:13:00,58.6,51.1,29.86,NW,308,0.0,0.0,76,0.00,,,0.00,WeatherCatV1.23B16,2014-09-30 04:13:00,
2014-09-30 00:18:00,58.4,50.9,29.86,NW,308,0.0,0.0,76,0.00,,,0.00,WeatherCatV1.23B16,2014-09-30 04:18:00,
2014-09-30 00:23:00,58.3,50.8,29.86,NW,308,0.0,0.0,76,0.00,,,0.00,WeatherCatV1.23B16,2014-09-30 04:23:00,
2014-09-30 00:28:00,58.3,50.8,29.86,NW,308,0.0,0.0,76,0.00,,,0.00,WeatherCatV1.23B16,2014-09-30 04:28:00,
2014-09-30 00:33:00,58.1,50.9,29.86,NW,308,0.0,0.0,77,0.00,,,0.00,WeatherCatV1.23B16,2014-09-30 04:33:00,
2014-09-30 00:38:00,58.0,50.8,29.86,NW,308,0.0,0.0,77,0.00,,,0.00,WeatherCatV1.23B16,2014-09-30 04:38:00,
2014-09-30 00:43:00,58.0,51.2,29.86,NW,308,0.0,0.0,78,0.00,,,0.00,WeatherCatV1.23B16,2014-09-30 04:43:00,
2014-09-30 00:48:00,57.8,51.0,29.86,NW,308,0.0,0.0,78,0.00,,,0.00,WeatherCatV1.23B16,2014-09-30 04:48:00,
2014-09-30 00:53:00,57.6,50.8,29.86,NW,308,0.0,0.0,78,0.00,,,0.00,WeatherCatV1.23B16,2014-09-30 04:53:00,
2014-09-30 00:58:00,57.6,50.8,29.86,NW,308,0.0,0.0,78,0.00,,,0.00,WeatherCatV1.23B16,2014-09-30 04:58:00,
2014-09-30 01:03:00,57.5,51.0,29.86,NW,308,0.0,0.0,79,0.00,,,0.00,WeatherCatV1.23B16,2014-09-30 05:03:00,
2014-09-30 01:08:00,57.3,50.8,29.86,NW,308,0.0,0.0,79,0.00,,,0.00,WeatherCatV1.23B16,2014-09-30 05:08:00,
2014-09-30 01:13:00,57.2,50.7,29.86,NW,308,0.0,0.0,79,0.00,,,0.00,WeatherCatV1.23B16,2014-09-30 05:13:00,
2014-09-30 01:14:00,57.2,50.7,29.86,NW,308,0.0,0.0,79,0.00,,,0.00,WeatherCatV1.23B16,2014-09-30 05:14:00,
2014-09-30 01:19:00,57.0,50.9,29.86,NW,308,0.0,0.0,80,0.00,,,0.00,WeatherCatV1.23B16,2014-09-30 05:19:00,
2014-09-30 01:21:00,56.9,50.5,29.86,NW,308,0.0,0.0,79,0.00,,,0.00,WeatherCatV1.23B16,2014-09-30 05:21:00,
2014-09-30 01:26:00,56.7,50.6,29.86,NW,308,0.0,0.0,80,0.00,,,0.00,WeatherCatV1.23B16,2014-09-30 05:26:00,
2014-09-30 01:31:00,56.7,50.6,29.86,NW,308,0.0,0.0,80,0.00,,,0.00,WeatherCatV1.23B16,2014-09-30 05:31:00,
2014-09-30 01:36:00,56.6,50.5,29.86,NW,308,0.0,0.0,80,0.00,,,0.00,WeatherCatV1.23B16,2014-09-30 05:36:00,
2014-09-30 01:41:00,56.6,50.5,29.86,NW,308,0.0,0.0,80,0.00,,,0.00,WeatherCatV1.23B16,2014-09-30 05:41:00,
2014-09-30 01:46:00,56.5,50.4,29.85,NW,308,0.0,0.0,80,0.00,,,0.00,WeatherCatV1.23B16,2014-09-30 05:46:00,
2014-09-30 01:51:00,56.3,50.5,29.85,NW,308,0.0,0.0,81,0.00,,,0.00,WeatherCatV1.23B16,2014-09-30 05:51:00,
2014-09-30 01:56:00,56.3,50.5,29.85,NW,308,0.0,0.0,81,0.00,,,0.00,WeatherCatV1.23B16,2014-09-30 05:56:00,
2014-09-30 02:01:00,56.2,50.8,29.86,NW,308,0.0,0.0,82,0.00,,,0.00,WeatherCatV1.23B16,2014-09-30 06:01:00,
2014-09-30 02:06:00,56.2,50.8,29.86,NW,308,0.0,0.0,82,0.00,,,0.00,WeatherCatV1.23B16,2014-09-30 06:06:00,
2014-09-30 02:11:00,56.0,50.6,29.86,NW,308,0.0,0.0,82,0.00,,,0.00,WeatherCatV1.23B16,2014-09-30 06:11:00,
2014-09-30 02:16:00,55.9,50.5,29.86,NW,308,0.0,0.0,82,0.00,,,0.00,WeatherCatV1.23B16,2014-09-30 06:16:00,
2014-09-30 02:21:00,55.9,50.8,29.86,NW,308,0.0,0.0,83,0.00,,,0.00,WeatherCatV1.23B16,2014-09-30 06:21:00,
2014-09-30 02:26:00,55.7,50.6,29.86,NW,308,0.0,0.0,83,0.00,,,0.00,WeatherCatV1.23B16,2014-09-30 06:26:00,
2014-09-30 02:31:00,55.7,50.6,29.86,NW,308,0.0,0.0,83,0.00,,,0.00,WeatherCatV1.23B16,2014-09-30 06:31:00,
2014-09-30 02:36:00,55.7,50.6,29.86,NW,308,0.0,0.0,83,0.00,,,0.00,WeatherCatV1.23B16,2014-09-30 06:36:00,
2014-09-30 02:41:00,55.6,50.5,29.86,NW,308,0.0,0.0,83,0.00,,,0.00,WeatherCatV1.23B16,2014-09-30 06:41:00,
2014-09-30 02:46:00,55.4,50.3,29.86,NW,308,0.0,0.0,83,0.00,,,0.00,WeatherCatV1.23B16,2014-09-30 06:46:00,
2014-09-30 02:51:00,55.4,50.3,29.86,NW,308,0.0,0.0,83,0.00,,,0.00,WeatherCatV1.23B16,2014-09-30 06:51:00,
2014-09-30 02:56:00,55.3,50.5,29.86,NW,308,0.0,0.0,84,0.00,,,0.00,WeatherCatV1.23B16,2014-09-30 06:56:00,
2014-09-30 03:01:00,55.1,50.3,29.86,NW,308,0.0,0.0,84,0.00,,,0.00,WeatherCatV1.23B16,2014-09-30 07:01:00,
2014-09-30 03:06:00,55.1,50.3,29.86,NW,308,0.0,0.0,84,0.00,,,0.00,WeatherCatV1.23B16,2014-09-30 07:06:00,
2014-09-30 03:11:00,55.1,50.3,29.86,NW,308,0.0,0.0,84,0.00,,,0.00,WeatherCatV1.23B16,2014-09-30 07:11:00,
2014-09-30 03:16:00,55.0,50.2,29.85,NW,308,0.0,0.0,84,0.00,,,0.00,WeatherCatV1.23B16,2014-09-30 07:16:00,
2014-09-30 03:21:00,55.0,50.2,29.85,NW,308,0.0,0.0,84,0.00,,,0.00,WeatherCatV1.23B16,2014-09-30 07:21:00,
2014-09-30 03:26:00,55.0,50.2,29.85,NW,308,0.0,0.0,84,0.00,,,0.00,WeatherCatV1.23B16,2014-09-30 07:26:00,
2014-09-30 03:31:00,55.0,50.6,29.85,NW,308,0.0,0.0,85,0.00,,,0.00,WeatherCatV1.23B16,2014-09-30 07:31:00,
2014-09-30 03:36:00,54.8,50.4,29.85,NW,308,0.0,0.0,85,0.00,,,0.00,WeatherCatV1.23B16,2014-09-30 07:36:00,
2014-09-30 03:41:00,54.8,50.4,29.85,NW,308,0.0,0.0,85,0.00,,,0.00,WeatherCatV1.23B16,2014-09-30 07:41:00,
2014-09-30 03:46:00,54.7,50.3,29.85,NW,308,0.0,0.0,85,0.00,,,0.00,WeatherCatV1.23B16,2014-09-30 07:46:00,
2014-09-30 03:51:00,54.7,50.3,29.85,NW,308,0.0,0.0,85,0.00,,,0.00,WeatherCatV1.23B16,2014-09-30 07:51:00,
2014-09-30 03:56:00,54.7,50.3,29.85,NW,308,0.0,0.0,85,0.00,,,0.00,WeatherCatV1.23B16,2014-09-30 07:56:00,
2014-09-30 04:01:00,54.5,50.4,29.85,NW,308,0.0,0.0,86,0.00,,,0.00,WeatherCatV1.23B16,2014-09-30 08:01:00,
2014-09-30 04:06:00,54.5,50.4,29.85,NW,308,0.0,0.0,86,0.00,,,0.00,WeatherCatV1.23B16,2014-09-30 08:06:00,
2014-09-30 04:11:00,54.4,50.3,29.85,NW,308,0.0,0.0,86,0.00,,,0.00,WeatherCatV1.23B16,2014-09-30 08:11:00,
2014-09-30 04:16:00,54.4,50.3,29.85,NW,308,0.0,0.0,86,0.00,,,0.00,WeatherCatV1.23B16,2014-09-30 08:16:00,
2014-09-30 04:21:00,54.4,50.3,29.85,NW,308,0.0,0.0,86,0.00,,,0.00,WeatherCatV1.23B16,2014-09-30 08:21:00,
2014-09-30 04:26:00,54.2,50.1,29.85,NW,308,0.0,0.0,86,0.00,,,0.00,WeatherCatV1.23B16,2014-09-30 08:26:00,
2014-09-30 04:31:00,54.2,50.1,29.85,NW,308,0.0,0.0,86,0.00,,,0.00,WeatherCatV1.23B16,2014-09-30 08:31:00,
2014-09-30 04:36:00,54.2,50.1,29.85,NW,308,0.0,0.0,86,0.00,,,0.00,WeatherCatV1.23B16,2014-09-30 08:36:00,
2014-09-30 04:41:00,54.2,50.1,29.85,NW,308,0.0,0.0,86,0.00,,,0.00,WeatherCatV1.23B16,2014-09-30 08:41:00,
2014-09-30 04:44:00,54.2,50.1,29.84,NW,308,0.0,0.0,86,0.00,,,0.00,WeatherCatV1.23B16,2014-09-30 08:44:00,
2014-09-30 04:49:00,54.2,50.1,29.84,NW,308,0.0,0.0,86,0.00,,,0.00,WeatherCatV1.23B16,2014-09-30 08:49:00,
2014-09-30 04:54:00,54.1,50.0,29.84,NW,308,0.0,0.0,86,0.00,,,0.00,WeatherCatV1.23B16,2014-09-30 08:54:00,
2014-09-30 04:59:00,54.2,50.4,29.84,NW,308,0.0,0.0,87,0.00,,,0.00,WeatherCatV1.23B16,2014-09-30 08:59:00,
2014-09-30 05:04:00,54.1,50.3,29.84,NW,308,0.0,0.0,87,0.00,,,0.00,WeatherCatV1.23B16,2014-09-30 09:04:00,
2014-09-30 05:09:00,54.1,50.3,29.84,NW,308,0.0,0.0,87,0.00,,,0.00,WeatherCatV1.23B16,2014-09-30 09:09:00,
2014-09-30 05:14:00,54.1,50.3,29.84,NW,308,0.0,0.0,87,0.00,,,0.00,WeatherCatV1.23B16,2014-09-30 09:14:00,
2014-09-30 05:19:00,54.1,50.3,29.84,NW,308,0.0,0.0,87,0.00,,,0.00,WeatherCatV1.23B16,2014-09-30 09:19:00,
2014-09-30 05:20:00,54.1,50.3,29.84,NW,308,0.0,0.0,87,0.00,,,0.00,WeatherCatV1.23B16,2014-09-30 09:20:00,
2014-09-30 05:25:00,54.1,50.3,29.84,NW,308,0.0,0.0,87,0.00,,,0.00,WeatherCatV1.23B16,2014-09-30 09:25:00,
2014-09-30 05:30:00,53.9,50.1,29.84,NW,308,0.0,0.0,87,0.00,,,0.00,WeatherCatV1.23B16,2014-09-30 09:30:00,
2014-09-30 05:35:00,53.9,50.1,29.84,NW,308,0.0,0.0,87,0.00,,,0.00,WeatherCatV1.23B16,2014-09-30 09:35:00,
2014-09-30 05:40:00,53.9,50.4,29.84,NW,308,0.0,0.0,88,0.00,,,0.00,WeatherCatV1.23B16,2014-09-30 09:40:00,
2014-09-30 05:45:00,53.9,50.4,29.84,NW,308,0.0,0.0,88,0.00,,,0.00,WeatherCatV1.23B16,2014-09-30 09:45:00,
2014-09-30 05:50:00,53.9,50.4,29.84,NW,308,0.0,0.0,88,0.00,,,0.00,WeatherCatV1.23B16,2014-09-30 09:50:00,
2014-09-30 05:55:00,53.9,50.4,29.84,NW,308,0.0,0.0,88,0.00,,,0.00,WeatherCatV1.23B16,2014-09-30 09:55:00,
2014-09-30 06:00:00,53.9,50.4,29.85,NW,308,0.0,0.0,88,0.00,,,0.00,WeatherCatV1.23B16,2014-09-30 10:00:00,
2014-09-30 06:05:00,54.1,50.6,29.85,NW,308,0.0,0.0,88,0.00,,,0.00,WeatherCatV1.23B16,2014-09-30 10:05:00,
2014-09-30 06:10:00,54.1,50.6,29.85,NW,308,0.0,0.0,88,0.00,,,0.00,WeatherCatV1.23B16,2014-09-30 10:10:00,
2014-09-30 06:15:00,54.1,50.6,29.85,NW,308,0.0,0.0,88,0.00,,,0.00,WeatherCatV1.23B16,2014-09-30 10:15:00,
2014-09-30 06:20:00,54.1,50.9,29.85,NW,308,0.0,0.0,89,0.00,,,0.00,WeatherCatV1.23B16,2014-09-30 10:20:00,
2014-09-30 06:25:00,54.1,50.9,29.85,NW,308,0.0,0.0,89,0.00,,,0.00,WeatherCatV1.23B16,2014-09-30 10:25:00,
2014-09-30 06:30:00,54.1,50.9,29.85,NW,308,0.0,0.0,89,0.00,,,0.00,WeatherCatV1.23B16,2014-09-30 10:30:00,
2014-09-30 06:35:00,54.2,51.0,29.85,NW,308,0.0,0.0,89,0.00,,,0.00,WeatherCatV1.23B16,2014-09-30 10:35:00,
2014-09-30 06:40:00,54.1,50.9,29.85,NW,308,0.0,0.0,89,0.00,,,0.00,WeatherCatV1.23B16,2014-09-30 10:40:00,
2014-09-30 06:45:00,54.1,50.9,29.85,NW,308,0.0,0.0,89,0.00,,,0.00,WeatherCatV1.23B16,2014-09-30 10:45:00,
2014-09-30 06:50:00,54.1,50.9,29.85,NW,308,0.0,0.0,89,0.00,,,0.00,WeatherCatV1.23B16,2014-09-30 10:50:00,
2014-09-30 06:55:00,54.1,50.9,29.85,NW,308,0.0,0.0,89,0.00,,,0.00,WeatherCatV1.23B16,2014-09-30 10:55:00,
2014-09-30 07:00:00,54.1,50.9,29.85,NW,308,0.0,0.0,89,0.00,,,0.00,WeatherCatV1.23B16,2014-09-30 11:00:00,
2014-09-30 07:05:00,54.1,50.9,29.85,NW,308,0.0,0.0,89,0.00,,,0.00,WeatherCatV1.23B16,2014-09-30 11:05:00,
2014-09-30 07:10:00,53.9,50.7,29.85,NW,308,0.0,0.0,89,0.00,,,0.00,WeatherCatV1.23B16,2014-09-30 11:10:00,
2014-09-30 07:15:00,53.9,50.7,29.86,NW,308,0.0,0.0,89,0.00,,,0.00,WeatherCatV1.23B16,2014-09-30 11:15:00,
2014-09-30 07:18:00,53.9,50.7,29.86,NW,308,0.0,0.0,89,0.00,,,0.00,WeatherCatV1.23B16,2014-09-30 11:18:00,
2014-09-30 07:23:00,53.9,50.7,29.86,NW,308,0.0,0.0,89,0.00,,,0.00,WeatherCatV1.23B16,2014-09-30 11:23:00,
2014-09-30 07:28:00,53.9,50.7,29.86,NW,308,0.0,0.0,89,0.00,,,0.00,WeatherCatV1.23B16,2014-09-30 11:28:00,
2014-09-30 07:33:00,53.8,50.6,29.86,NW,308,0.0,0.0,89,0.00,,,0.00,WeatherCatV1.23B16,2014-09-30 11:33:00,
2014-09-30 07:38:00,53.8,50.6,29.86,NW,308,0.0,0.0,89,0.00,,,0.00,WeatherCatV1.23B16,2014-09-30 11:38:00,
2014-09-30 07:43:00,53.8,50.6,29.86,NW,308,0.0,0.0,89,0.00,,,0.00,WeatherCatV1.23B16,2014-09-30 11:43:00,
2014-09-30 07:48:00,53.8,50.6,29.87,NW,308,0.0,0.0,89,0.00,,,0.00,WeatherCatV1.23B16,2014-09-30 11:48:00,
2014-09-30 07:53:00,53.6,50.4,29.87,NW,308,0.0,0.0,89,0.00,,,0.00,WeatherCatV1.23B16,2014-09-30 11:53:00,
2014-09-30 07:58:00,53.6,50.4,29.87,NW,308,0.0,0.0,89,0.00,,,0.00,WeatherCatV1.23B16,2014-09-30 11:58:00,
2014-09-30 08:03:00,53.8,50.6,29.87,NW,308,0.0,0.0,89,0.00,,,0.00,WeatherCatV1.23B16,2014-09-30 12:03:00,
2014-09-30 08:08:00,53.8,50.6,29.87,NW,308,0.0,0.0,89,0.00,,,0.00,WeatherCatV1.23B16,2014-09-30 12:08:00,
2014-09-30 08:13:00,53.9,50.7,29.87,NW,308,0.0,0.0,89,0.00,,,0.00,WeatherCatV1.23B16,2014-09-30 12:13:00,
2014-09-30 08:18:00,54.1,50.9,29.87,NW,308,0.0,0.0,89,0.00,,,0.00,WeatherCatV1.23B16,2014-09-30 12:18:00,
2014-09-30 08:23:00,54.1,50.9,29.87,NW,308,0.0,0.0,89,0.00,,,0.00,WeatherCatV1.23B16,2014-09-30 12:23:00,
2014-09-30 08:28:00,54.1,50.9,29.87,NW,308,0.0,0.0,89,0.00,,,0.00,WeatherCatV1.23B16,2014-09-30 12:28:00,
2014-09-30 08:33:00,54.4,51.5,29.88,NW,308,0.0,0.0,90,0.00,,,0.00,WeatherCatV1.23B16,2014-09-30 12:33:00,
2014-09-30 08:38:00,54.7,51.8,29.88,NW,308,0.0,0.0,90,0.00,,,0.00,WeatherCatV1.23B16,2014-09-30 12:38:00,
2014-09-30 08:43:00,55.3,52.4,29.88,NW,308,0.0,0.0,90,0.00,,,0.00,WeatherCatV1.23B16,2014-09-30 12:43:00,
2014-09-30 08:48:00,55.7,52.8,29.87,NW,308,0.0,0.0,90,0.00,,,0.00,WeatherCatV1.23B16,2014-09-30 12:48:00,
2014-09-30 08:53:00,55.9,53.0,29.87,NW,308,0.0,0.0,90,0.00,,,0.00,WeatherCatV1.23B16,2014-09-30 12:53:00,
2014-09-30 08:58:00,56.0,53.1,29.87,NW,308,0.0,0.0,90,0.00,,,0.00,WeatherCatV1.23B16,2014-09-30 12:58:00,
2014-09-30 09:03:00,56.3,53.4,29.87,NW,308,0.0,0.0,90,0.00,,,0.00,WeatherCatV1.23B16,2014-09-30 13:03:00,
2014-09-30 09:08:00,56.6,53.4,29.87,NW,308,0.0,0.0,89,0.00,,,0.00,WeatherCatV1.23B16,2014-09-30 13:08:00,
2014-09-30 09:13:00,57.0,53.8,29.87,NW,308,0.0,0.0,89,0.00,,,0.00,WeatherCatV1.23B16,2014-09-30 13:13:00,
2014-09-30 09:14:00,57.2,54.0,29.87,NW,308,0.0,0.0,89,0.00,,,0.00,WeatherCatV1.23B16,2014-09-30 13:14:00,
2014-09-30 09:19:00,57.6,53.8,29.87,NW,308,0.0,0.0,87,0.00,,,0.00,WeatherCatV1.23B16,2014-09-30 13:19:00,
2014-09-30 09:24:00,58.1,53.6,29.87,NW,308,0.0,0.0,85,0.00,,,0.00,WeatherCatV1.23B16,2014-09-30 13:24:00,
2014-09-30 09:29:00,58.6,53.5,29.87,NW,308,0.0,0.0,83,0.00,,,0.00,WeatherCatV1.23B16,2014-09-30 13:29:00,
2014-09-30 09:34:00,58.9,53.7,29.87,NW,308,0.0,0.0,83,0.00,,,0.00,WeatherCatV1.23B16,2014-09-30 13:34:00,
2014-09-30 09:39:00,59.3,53.1,29.87,NW,308,0.0,0.0,80,0.00,,,0.00,WeatherCatV1.23B16,2014-09-30 13:39:00,
2014-09-30 09:44:00,59.9,53.0,29.87,NW,308,0.0,0.0,78,0.00,,,0.00,WeatherCatV1.23B16,2014-09-30 13:44:00,
2014-09-30 09:49:00,60.4,51.7,29.87,NW,308,0.0,0.0,73,0.00,,,0.00,WeatherCatV1.23B16,2014-09-30 13:49:00,
2014-09-30 09:54:00,61.2,51.7,29.87,NW,308,0.0,0.0,71,0.00,,,0.00,WeatherCatV1.23B16,2014-09-30 13:54:00,
2014-09-30 09:59:00,62.1,50.6,29.87,NW,308,0.0,1.0,66,0.00,,,0.00,WeatherCatV1.23B16,2014-09-30 13:59:00,
2014-09-30 10:04:00,63.1,52.4,29.87,NW,308,0.0,0.0,68,0.00,,,0.00,WeatherCatV1.23B16,2014-09-30 14:04:00,
2014-09-30 10:09:00,63.5,52.3,29.87,NW,308,0.0,0.0,67,0.00,,,0.00,WeatherCatV1.23B16,2014-09-30 14:09:00,
2014-09-30 10:14:00,63.9,52.7,29.87,NW,308,0.0,0.0,67,0.00,,,0.00,WeatherCatV1.23B16,2014-09-30 14:14:00,
2014-09-30 10:19:00,64.2,53.4,29.87,NW,308,0.0,0.0,68,0.00,,,0.00,WeatherCatV1.23B16,2014-09-30 14:19:00,
2014-09-30 10:24:00,64.3,53.5,29.87,NW,308,0.0,0.0,68,0.00,,,0.00,WeatherCatV1.23B16,2014-09-30 14:24:00,
2014-09-30 10:29:00,64.7,53.5,29.87,NW,308,0.0,0.0,67,0.00,,,0.00,WeatherCatV1.23B16,2014-09-30 14:29:00,
2014-09-30 10:34:00,65.0,52.9,29.87,NW,308,0.0,0.0,65,0.00,,,0.00,WeatherCatV1.23B16,2014-09-30 14:34:00,
2014-09-30 10:39:00,65.6,53.5,29.87,NW,308,3.0,3.0,65,0.00,,,0.00,WeatherCatV1.23B16,2014-09-30 14:39:00,
2014-09-30 10:44:00,66.4,53.8,29.87,NW,311,0.0,3.0,64,0.00,,,0.00,WeatherCatV1.23B16,2014-09-30 14:44:00,
2014-09-30 10:49:00,67.1,53.2,29.87,NW,311,0.0,0.0,61,0.00,,,0.00,WeatherCatV1.23B16,2014-09-30 14:49:00,
2014-09-30 10:54:00,67.3,52.9,29.87,NW,311,0.0,0.0,60,0.00,,,0.00,WeatherCatV1.23B16,2014-09-30 14:54:00,
2014-09-30 10:59:00,67.4,53.5,29.87,NW,311,0.0,0.0,61,0.00,,,0.00,WeatherCatV1.23B16,2014-09-30 14:59:00,
2014-09-30 11:04:00,67.4,53.5,29.87,NW,311,0.0,0.0,61,0.00,,,0.00,WeatherCatV1.23B16,2014-09-30 15:04:00,
2014-09-30 11:09:00,67.4,53.5,29.87,NW,311,0.0,0.0,61,0.00,,,0.00,WeatherCatV1.23B16,2014-09-30 15:09:00,
2014-09-30 11:12:00,67.4,53.5,29.87,NW,311,0.0,1.0,61,0.00,,,0.00,WeatherCatV1.23B16,2014-09-30 15:12:00,
2014-09-30 11:17:00,67.8,53.8,29.87,NW,322,0.0,0.0,61,0.00,,,0.00,WeatherCatV1.23B16,2014-09-30 15:17:00,
2014-09-30 11:22:00,68.1,54.1,29.87,West,271,0.0,0.0,61,0.00,,,0.00,WeatherCatV1.23B16,2014-09-30 15:22:00,
2014-09-30 11:27:00,68.3,54.3,29.87,West,271,0.0,0.0,61,0.00,,,0.00,WeatherCatV1.23B16,2014-09-30 15:27:00,
2014-09-30 11:29:00,68.3,53.9,29.87,West,271,0.0,0.0,60,0.00,,,0.00,WeatherCatV1.23B16,2014-09-30 15:29:00,
2014-09-30 11:34:00,68.6,54.6,29.87,West,272,0.0,1.0,61,0.00,,,0.00,WeatherCatV1.23B16,2014-09-30 15:34:00,
2014-09-30 11:39:00,68.9,54.4,29.87,NW,313,1.0,2.0,60,0.00,,,0.00,WeatherCatV1.23B16,2014-09-30 15:39:00,
2014-09-30 11:44:00,69.3,54.8,29.87,NW,315,0.0,0.0,60,0.00,,,0.00,WeatherCatV1.23B16,2014-09-30 15:44:00,
2014-09-30 11:49:00,69.4,54.4,29.87,NNW,329,0.0,2.0,59,0.00,,,0.00,WeatherCatV1.23B16,2014-09-30 15:49:00,
2014-09-30 11:54:00,69.6,54.6,29.87,NNW,329,0.0,0.0,59,0.00,,,0.00,WeatherCatV1.23B16,2014-09-30 15:54:00,
2014-09-30 11:59:00,69.8,55.3,29.87,NNW,329,0.0,0.0,60,0.00,,,0.00,WeatherCatV1.23B16,2014-09-30 15:59:00,
2014-09-30 12:04:00,69.9,54.9,29.87,NNW,329,0.0,0.0,59,0.00,,,0.00,WeatherCatV1.23B16,2014-09-30 16:04:00,
2014-09-30 12:09:00,70.1,55.1,29.87,NNW,343,0.0,0.0,59,0.00,,,0.00,WeatherCatV1.23B16,2014-09-30 16:09:00,
2014-09-30 12:14:00,70.4,55.4,29.87,NNW,343,0.0,0.0,59,0.00,,,0.00,WeatherCatV1.23B16,2014-09-30 16:14:00,
2014-09-30 12:19:00,70.8,55.8,29.87,NW,324,1.0,3.0,59,0.00,,,0.00,WeatherCatV1.23B16,2014-09-30 16:19:00,
2014-09-30 12:24:00,70.8,55.8,29.87,NW,324,0.0,1.0,59,0.00,,,0.00,WeatherCatV1.23B16,2014-09-30 16:24:00,
2014-09-30 12:29:00,70.9,55.4,29.87,NW,311,0.0,5.0,58,0.00,,,0.00,WeatherCatV1.23B16,2014-09-30 16:29:00,
2014-09-30 12:34:00,71.1,55.6,29.87,NNE,14,0.0,0.0,58,0.00,,,0.00,WeatherCatV1.23B16,2014-09-30 16:34:00,
2014-09-30 12:39:00,71.3,55.8,29.87,North,355,0.0,1.0,58,0.00,,,0.00,WeatherCatV1.23B16,2014-09-30 16:39:00,
2014-09-30 12:44:00,71.5,56.4,29.86,NNW,341,0.0,4.0,59,0.00,,,0.00,WeatherCatV1.23B16,2014-09-30 16:44:00,
2014-09-30 12:49:00,71.6,56.5,29.86,NNW,341,0.0,1.0,59,0.00,,,0.00,WeatherCatV1.23B16,2014-09-30 16:49:00,
2014-09-30 12:54:00,72.0,56.4,29.86,NNW,341,0.0,0.0,58,0.00,,,0.00,WeatherCatV1.23B16,2014-09-30 16:54:00,
2014-09-30 12:59:00,72.3,56.2,29.86,NW,310,0.0,3.0,57,0.00,,,0.00,WeatherCatV1.23B16,2014-09-30 16:59:00,
2014-09-30 13:04:00,72.1,56.0,29.86,NW,312,0.0,0.0,57,0.00,,,0.00,WeatherCatV1.23B16,2014-09-30 17:04:00,
2014-09-30 13:07:00,72.1,56.5,29.86,NW,312,0.0,0.0,58,0.00,,,0.00,WeatherCatV1.23B16,2014-09-30 17:07:00,
2014-09-30 13:12:00,72.0,56.4,29.86,NW,312,2.0,3.0,58,0.00,,,0.00,WeatherCatV1.23B16,2014-09-30 17:12:00,
2014-09-30 13:17:00,71.8,57.2,29.86,NW,312,1.0,1.0,60,0.00,,,0.00,WeatherCatV1.23B16,2014-09-30 17:17:00,
2014-09-30 13:22:00,71.6,56.5,29.86,NW,312,0.0,0.0,59,0.00,,,0.00,WeatherCatV1.23B16,2014-09-30 17:22:00,
2014-09-30 13:27:00,71.5,56.4,29.86,NW,312,0.0,0.0,59,0.00,,,0.00,WeatherCatV1.23B16,2014-09-30 17:27:00,
2014-09-30 13:30:00,71.3,56.2,29.86,NW,312,2.0,3.0,59,0.00,,,0.00,WeatherCatV1.23B16,2014-09-30 17:30:00,
2014-09-30 13:35:00,71.3,56.7,29.86,NW,312,0.0,0.0,60,0.00,,,0.00,WeatherCatV1.23B16,2014-09-30 17:35:00,
2014-09-30 13:40:00,71.3,56.2,29.86,NW,306,0.0,2.0,59,0.00,,,0.00,WeatherCatV1.23B16,2014-09-30 17:40:00,
2014-09-30 13:45:00,71.6,56.5,29.85,NW,306,0.0,0.0,59,0.00,,,0.00,WeatherCatV1.23B16,2014-09-30 17:45:00,
2014-09-30 13:50:00,72.0,56.9,29.85,WNW,290,0.0,0.0,59,0.00,,,0.00,WeatherCatV1.23B16,2014-09-30 17:50:00,
2014-09-30 13:55:00,72.1,56.5,29.85,WNW,289,0.0,0.0,58,0.00,,,0.00,WeatherCatV1.23B16,2014-09-30 17:55:00,
2014-09-30 14:00:00,72.5,57.3,29.85,WNW,289,0.0,0.0,59,0.00,,,0.00,WeatherCatV1.23B16,2014-09-30 18:00:00,
2014-09-30 14:05:00,73.0,56.8,29.85,WNW,289,1.0,2.0,57,0.00,,,0.00,WeatherCatV1.23B16,2014-09-30 18:05:00,
2014-09-30 14:10:00,73.5,56.8,29.85,WSW,257,2.0,5.0,56,0.00,,,0.00,WeatherCatV1.23B16,2014-09-30 18:10:00,
2014-09-30 14:15:00,73.9,57.2,29.84,NW,307,0.0,1.0,56,0.00,,,0.00,WeatherCatV1.23B16,2014-09-30 18:15:00,
2014-09-30 14:20:00,73.9,57.2,29.84,West,261,0.0,2.0,56,0.00,,,0.00,WeatherCatV1.23B16,2014-09-30 18:20:00,
2014-09-30 14:25:00,74.0,57.3,29.84,NNW,328,2.0,3.0,56,0.00,,,0.00,WeatherCatV1.23B16,2014-09-30 18:25:00,
2014-09-30 14:30:00,74.0,57.8,29.84,NW,319,0.0,4.0,57,0.00,,,0.00,WeatherCatV1.23B16,2014-09-30 18:30:00,
2014-09-30 14:35:00,74.0,57.8,29.84,NW,319,0.0,1.0,57,0.00,,,0.00,WeatherCatV1.23B16,2014-09-30 18:35:00,
2014-09-30 14:40:00,74.0,57.8,29.84,NW,317,0.0,1.0,57,0.00,,,0.00,WeatherCatV1.23B16,2014-09-30 18:40:00,
2014-09-30 14:45:00,73.7,57.5,29.84,NW,308,2.0,4.0,57,0.00,,,0.00,WeatherCatV1.23B16,2014-09-30 18:45:00,
2014-09-30 14:50:00,73.5,58.3,29.84,NW,321,0.0,3.0,59,0.00,,,0.00,WeatherCatV1.23B16,2014-09-30 18:50:00,
2014-09-30 14:55:00,73.7,58.5,29.84,WNW,284,0.0,0.0,59,0.00,,,0.00,WeatherCatV1.23B16,2014-09-30 18:55:00,
2014-09-30 15:00:00,73.7,58.5,29.84,NW,319,0.0,3.0,59,0.00,,,0.00,WeatherCatV1.23B16,2014-09-30 19:00:00,
2014-09-30 15:04:00,73.5,58.3,29.84,NE,55,0.0,1.0,59,0.00,,,0.00,WeatherCatV1.23B16,2014-09-30 19:04:00,
2014-09-30 15:09:00,73.3,58.6,29.84,NW,312,0.0,1.0,60,0.00,,,0.00,WeatherCatV1.23B16,2014-09-30 19:09:00,
2014-09-30 15:14:00,73.2,58.5,29.84,NNW,336,0.0,4.0,60,0.00,,,0.00,WeatherCatV1.23B16,2014-09-30 19:14:00,
2014-09-30 15:19:00,73.0,58.3,29.84,NNW,336,0.0,0.0,60,0.00,,,0.00,WeatherCatV1.23B16,2014-09-30 19:19:00,
2014-09-30 15:24:00,73.0,58.3,29.84,NW,325,0.0,2.0,60,0.00,,,0.00,WeatherCatV1.23B16,2014-09-30 19:24:00,
2014-09-30 15:29:00,73.2,59.4,29.84,NW,313,1.0,1.0,62,0.00,,,0.00,WeatherCatV1.23B16,2014-09-30 19:29:00,
2014-09-30 15:34:00,73.2,58.5,29.84,NW,321,4.0,4.0,60,0.00,,,0.00,WeatherCatV1.23B16,2014-09-30 19:34:00,
2014-09-30 15:39:00,73.3,58.6,29.84,West,275,0.0,3.0,60,0.00,,,0.00,WeatherCatV1.23B16,2014-09-30 19:39:00,
2014-09-30 15:44:00,73.3,58.6,29.83,NW,313,0.0,4.0,60,0.00,,,0.00,WeatherCatV1.23B16,2014-09-30 19:44:00,
2014-09-30 15:49:00,73.3,58.1,29.83,NW,318,0.0,5.0,59,0.00,,,0.00,WeatherCatV1.23B16,2014-09-30 19:49:00,
2014-09-30 15:54:00,73.0,58.7,29.83,NW,315,0.0,3.0,61,0.00,,,0.00,WeatherCatV1.23B16,2014-09-30 19:54:00,
2014-09-30 15:59:00,73.0,58.7,29.84,NW,315,0.0,1.0,61,0.00,,,0.00,WeatherCatV1.23B16,2014-09-30 19:59:00,
2014-09-30 16:04:00,72.8,58.5,29.84,NW,318,4.0,5.0,61,0.00,,,0.00,WeatherCatV1.23B16,2014-09-30 20:04:00,
2014-09-30 16:09:00,72.7,58.5,29.84,West,279,0.0,5.0,61,0.00,,,0.00,WeatherCatV1.23B16,2014-09-30 20:09:00,
2014-09-30 16:14:00,72.3,58.1,29.84,NE,35,0.0,0.0,61,0.00,,,0.00,WeatherCatV1.23B16,2014-09-30 20:14:00,
2014-09-30 16:19:00,72.0,58.2,29.84,NNW,329,0.0,3.0,62,0.00,,,0.00,WeatherCatV1.23B16,2014-09-30 20:19:00,
2014-09-30 16:24:00,71.6,58.3,29.84,NNW,329,0.0,2.0,63,0.00,,,0.00,WeatherCatV1.23B16,2014-09-30 20:24:00,
2014-09-30 16:29:00,71.5,58.2,29.84,WNW,296,0.0,3.0,63,0.00,,,0.00,WeatherCatV1.23B16,2014-09-30 20:29:00,
2014-09-30 16:34:00,71.3,58.0,29.84,WNW,298,0.0,4.0,63,0.00,,,0.00,WeatherCatV1.23B16,2014-09-30 20:34:00,
2014-09-30 16:39:00,71.1,58.3,29.84,NW,305,0.0,0.0,64,0.00,,,0.00,WeatherCatV1.23B16,2014-09-30 20:39:00,
2014-09-30 16:44:00,70.9,58.1,29.83,NW,309,0.0,0.0,64,0.00,,,0.00,WeatherCatV1.23B16,2014-09-30 20:44:00,
2014-09-30 16:49:00,71.1,58.3,29.83,NW,309,0.0,3.0,64,0.00,,,0.00,WeatherCatV1.23B16,2014-09-30 20:49:00,
2014-09-30 16:54:00,71.1,58.3,29.83,NW,309,0.0,1.0,64,0.00,,,0.00,WeatherCatV1.23B16,2014-09-30 20:54:00,
2014-09-30 16:59:00,71.3,58.9,29.83,NW,309,0.0,4.0,65,0.00,,,0.00,WeatherCatV1.23B16,2014-09-30 20:59:00,
2014-09-30 17:01:00,71.5,58.7,29.83,NW,311,0.0,0.0,64,0.00,,,0.00,WeatherCatV1.23B16,2014-09-30 21:01:00,
2014-09-30 17:06:00,71.5,58.2,29.83,NE,38,0.0,0.0,63,0.00,,,0.00,WeatherCatV1.23B16,2014-09-30 21:06:00,
2014-09-30 17:11:00,71.8,59.0,29.83,NNW,342,0.0,3.0,64,0.00,,,0.00,WeatherCatV1.23B16,2014-09-30 21:11:00,
2014-09-30 17:16:00,71.8,58.5,29.83,NNW,342,0.0,0.0,63,0.00,,,0.00,WeatherCatV1.23B16,2014-09-30 21:16:00,
2014-09-30 17:21:00,71.8,59.0,29.83,North,355,0.0,0.0,64,0.00,,,0.00,WeatherCatV1.23B16,2014-09-30 21:21:00,
2014-09-30 17:26:00,71.5,58.7,29.83,NW,317,0.0,4.0,64,0.00,,,0.00,WeatherCatV1.23B16,2014-09-30 21:26:00,
2014-09-30 17:31:00,71.3,58.5,29.84,NW,317,0.0,1.0,64,0.00,,,0.00,WeatherCatV1.23B16,2014-09-30 21:31:00,
2014-09-30 17:36:00,71.1,58.3,29.84,NW,317,0.0,0.0,64,0.00,,,0.00,WeatherCatV1.23B16,2014-09-30 21:36:00,
2014-09-30 17:41:00,70.8,58.4,29.84,NNE,28,0.0,1.0,65,0.00,,,0.00,WeatherCatV1.23B16,2014-09-30 21:41:00,
2014-09-30 17:46:00,70.4,58.5,29.84,NW,304,0.0,1.0,66,0.00,,,0.00,WeatherCatV1.23B16,2014-09-30 21:46:00,
2014-09-30 17:51:00,70.3,58.0,29.84,NNW,337,0.0,1.0,65,0.00,,,0.00,WeatherCatV1.23B16,2014-09-30 21:51:00,
2014-09-30 17:56:00,69.9,58.0,29.84,North,355,0.0,0.0,66,0.00,,,0.00,WeatherCatV1.23B16,2014-09-30 21:56:00,
2014-09-30 18:01:00,69.6,57.7,29.84,NNW,329,1.0,3.0,66,0.00,,,0.00,WeatherCatV1.23B16,2014-09-30 22:01:00,
2014-09-30 18:06:00,69.4,58.0,29.84,NE,53,0.0,1.0,67,0.00,,,0.00,WeatherCatV1.23B16,2014-09-30 22:06:00,
2014-09-30 18:11:00,69.3,57.9,29.84,NW,313,0.0,3.0,67,0.00,,,0.00,WeatherCatV1.23B16,2014-09-30 22:11:00,
2014-09-30 18:16:00,69.1,58.1,29.84,North,355,0.0,0.0,68,0.00,,,0.00,WeatherCatV1.23B16,2014-09-30 22:16:00,
2014-09-30 18:21:00,68.9,57.9,29.84,NW,319,2.0,2.0,68,0.00,,,0.00,WeatherCatV1.23B16,2014-09-30 22:21:00,
2014-09-30 18:26:00,68.6,57.6,29.84,NW,319,0.0,0.0,68,0.00,,,0.00,WeatherCatV1.23B16,2014-09-30 22:26:00,
2014-09-30 18:31:00,68.3,57.3,29.85,NNW,340,0.0,1.0,68,0.00,,,0.00,WeatherCatV1.23B16,2014-09-30 22:31:00,
2014-09-30 18:36:00,67.9,57.3,29.85,NNW,340,0.0,0.0,69,0.00,,,0.00,WeatherCatV1.23B16,2014-09-30 22:36:00,
2014-09-30 18:41:00,67.6,57.1,29.85,NNW,340,0.0,1.0,69,0.00,,,0.00,WeatherCatV1.23B16,2014-09-30 22:41:00,
2014-09-30 18:46:00,67.3,56.8,29.86,NNE,13,1.0,1.0,69,0.00,,,0.00,WeatherCatV1.23B16,2014-09-30 22:46:00,
2014-09-30 18:50:00,66.9,56.8,29.86,NNE,15,0.0,1.0,70,0.00,,,0.00,WeatherCatV1.23B16,2014-09-30 22:50:00,
2014-09-30 18:55:00,66.4,56.7,29.86,NE,56,0.0,1.0,71,0.00,,,0.00,WeatherCatV1.23B16,2014-09-30 22:55:00,
2014-09-30 18:59:00,66.0,56.3,29.86,North,5,0.0,0.0,71,0.00,,,0.00,WeatherCatV1.23B16,2014-09-30 22:59:00,
2014-09-30 19:04:00,65.6,56.3,29.86,NNE,20,0.0,1.0,72,0.00,,,0.00,WeatherCatV1.23B16,2014-09-30 23:04:00,
2014-09-30 19:09:00,65.5,56.2,29.86,NE,41,0.0,0.0,72,0.00,,,0.00,WeatherCatV1.23B16,2014-09-30 23:09:00,
2014-09-30 19:14:00,65.2,55.9,29.86,North,355,0.0,0.0,72,0.00,,,0.00,WeatherCatV1.23B16,2014-09-30 23:14:00,
2014-09-30 19:19:00,64.8,55.5,29.87,North,350,0.0,1.0,72,0.00,,,0.00,WeatherCatV1.23B16,2014-09-30 23:19:00,
2014-09-30 19:24:00,64.7,55.8,29.87,North,5,0.0,0.0,73,0.00,,,0.00,WeatherCatV1.23B16,2014-09-30 23:24:00,
2014-09-30 19:25:00,64.7,55.8,29.87,NNE,14,0.0,1.0,73,0.00,,,0.00,WeatherCatV1.23B16,2014-09-30 23:25:00,
2014-09-30 19:30:00,64.3,55.5,29.87,NNE,32,0.0,1.0,73,0.00,,,0.00,WeatherCatV1.23B16,2014-09-30 23:30:00,
2014-09-30 19:35:00,64.0,55.5,29.87,North,10,0.0,0.0,74,0.00,,,0.00,WeatherCatV1.23B16,2014-09-30 23:35:00,
2014-09-30 19:40:00,63.7,55.2,29.87,NNE,27,0.0,1.0,74,0.00,,,0.00,WeatherCatV1.23B16,2014-09-30 23:40:00,
2014-09-30 19:45:00,63.4,55.0,29.87,NNE,29,0.0,0.0,74,0.00,,,0.00,WeatherCatV1.23B16,2014-09-30 23:45:00,
2014-09-30 19:50:00,63.2,55.1,29.87,NNE,29,1.0,1.0,75,0.00,,,0.00,WeatherCatV1.23B16,2014-09-30 23:50:00,
2014-09-30 19:55:00,63.1,55.0,29.87,ENE,59,0.0,3.0,75,0.00,,,0.00,WeatherCatV1.23B16,2014-09-30 23:55:00,
2014-09-30 20:00:00,62.7,54.7,29.87,ENE,60,0.0,1.0,75,0.00,,,0.00,WeatherCatV1.23B16,2014-10-01 00:00:00,
2014-09-30 20:05:00,62.6,54.9,29.87,ENE,60,0.0,0.0,76,0.00,,,0.00,WeatherCatV1.23B16,2014-10-01 00:05:00,
2014-09-30 20:10:00,62.4,54.7,29.87,North,350,0.0,2.0,76,0.00,,,0.00,WeatherCatV1.23B16,2014-10-01 00:10:00,
2014-09-30 20:15:00,62.3,54.6,29.87,NNE,25,0.0,1.0,76,0.00,,,0.00,WeatherCatV1.23B16,2014-10-01 00:15:00,
2014-09-30 20:20:00,62.1,54.1,29.87,NNE,26,0.0,0.0,75,0.00,,,0.00,WeatherCatV1.23B16,2014-10-01 00:20:00,
2014-09-30 20:25:00,61.8,53.8,29.87,NNE,26,0.0,0.0,75,0.00,,,0.00,WeatherCatV1.23B16,2014-10-01 00:25:00,
2014-09-30 20:30:00,61.6,53.2,29.87,ENE,58,0.0,1.0,74,0.00,,,0.00,WeatherCatV1.23B16,2014-10-01 00:30:00,
2014-09-30 20:35:00,61.5,53.1,29.87,ENE,59,0.0,0.0,74,0.00,,,0.00,WeatherCatV1.23B16,2014-10-01 00:35:00,
2014-09-30 20:40:00,61.3,52.9,29.87,ENE,59,0.0,0.0,74,0.00,,,0.00,WeatherCatV1.23B16,2014-10-01 00:40:00,
2014-09-30 20:45:00,61.2,53.2,29.88,ENE,59,0.0,0.0,75,0.00,,,0.00,WeatherCatV1.23B16,2014-10-01 00:45:00,
2014-09-30 20:50:00,61.0,53.0,29.88,ENE,59,0.0,0.0,75,0.00,,,0.00,WeatherCatV1.23B16,2014-10-01 00:50:00,
2014-09-30 20:55:00,60.9,52.9,29.88,ENE,59,0.0,0.0,75,0.00,,,0.00,WeatherCatV1.23B16,2014-10-01 00:55:00,
2014-09-30 21:00:00,60.7,53.1,29.89,ENE,59,0.0,0.0,76,0.00,,,0.00,WeatherCatV1.23B16,2014-10-01 01:00:00,
2014-09-30 21:13:00,60.4,53.2,29.89,ENE,59,0.0,0.0,77,0.00,,,0.00,WeatherCatV1.23B16,2014-10-01 01:13:00,
2014-09-30 21:18:00,60.2,53.0,29.89,ENE,59,0.0,0.0,77,0.00,,,0.00,WeatherCatV1.23B16,2014-10-01 01:18:00,
2014-09-30 21:23:00,60.1,53.2,29.89,ENE,59,0.0,0.0,78,0.00,,,0.00,WeatherCatV1.23B16,2014-10-01 01:23:00,
2014-09-30 21:28:00,60.1,53.2,29.89,ENE,59,0.0,0.0,78,0.00,,,0.00,WeatherCatV1.23B16,2014-10-01 01:28:00,
2014-09-30 21:33:00,59.8,52.9,29.90,ENE,59,0.0,0.0,78,0.00,,,0.00,WeatherCatV1.23B16,2014-10-01 01:33:00,
2014-09-30 21:38:00,59.6,52.7,29.90,NNE,14,0.0,0.0,78,0.00,,,0.00,WeatherCatV1.23B16,2014-10-01 01:38:00,
2014-09-30 21:43:00,59.5,52.6,29.90,NNE,14,0.0,0.0,78,0.00,,,0.00,WeatherCatV1.23B16,2014-10-01 01:43:00,